4XECA LLER-LLBG

Flight info

Callsign 4XECA
Flight time 0h 34m
Altitude 18000
Route NURIT J10 AMMIT
Aircraft MD11/H-SDE1E2E3FGHIJ2J3J4J5M1RWXY/LB1D1

Departure

Time 2026-04-22 12:31
Airport Ramon International Airport (LLER)

Arrival

Time 2026-04-22 13:05
Airport Ben Gurion International Airport (LLBG)
Time Latitude Longitude Altitude Speed Heading
2026-04-22 12:03 29.72708 35.01048 305 ft 0 kts 104°
2026-04-22 12:17 29.72709 35.01044 305 ft 2 kts 104°
2026-04-22 12:17 29.72712 35.01027 305 ft 2 kts 104°
2026-04-22 12:17 29.72716 35.01011 305 ft 2 kts 104°
2026-04-22 12:18 29.72720 35.00994 305 ft 2 kts 118°
2026-04-22 12:18 29.72729 35.00981 305 ft 2 kts 137°
2026-04-22 12:18 29.72741 35.00971 305 ft 2 kts 155°
2026-04-22 12:18 29.72755 35.00966 304 ft 2 kts 173°
2026-04-22 12:19 29.72770 35.00966 305 ft 1 kts 190°
2026-04-22 12:19 29.72774 35.00967 305 ft 0 kts 193°
2026-04-22 12:22 29.72768 35.00965 304 ft 1 kts 193°
2026-04-22 12:23 29.72748 35.00960 304 ft 3 kts 193°
2026-04-22 12:23 29.72713 35.00951 304 ft 6 kts 193°
2026-04-22 12:23 29.72661 35.00937 304 ft 8 kts 193°
2026-04-22 12:23 29.72594 35.00919 304 ft 10 kts 193°
2026-04-22 12:24 29.72516 35.00896 304 ft 12 kts 194°
2026-04-22 12:24 29.72453 35.00890 304 ft 8 kts 152°
2026-04-22 12:24 29.72422 35.00952 304 ft 9 kts 109°
2026-04-22 12:24 29.72405 35.01026 305 ft 9 kts 103°
2026-04-22 12:25 29.72370 35.01085 305 ft 9 kts 166°
2026-04-22 12:25 29.72301 35.01073 305 ft 10 kts 197°
2026-04-22 12:25 29.72222 35.01050 305 ft 12 kts 193°
2026-04-22 12:25 29.72127 35.01024 305 ft 14 kts 193°
2026-04-22 12:26 29.72020 35.00994 304 ft 16 kts 193°
2026-04-22 12:26 29.71900 35.00961 304 ft 18 kts 193°
2026-04-22 12:26 29.71767 35.00924 304 ft 20 kts 194°
2026-04-22 12:26 29.71623 35.00883 304 ft 22 kts 194°
2026-04-22 12:27 29.71466 35.00838 304 ft 23 kts 194°
2026-04-22 12:27 29.71322 35.00798 304 ft 13 kts 193°
2026-04-22 12:27 29.71256 35.00780 303 ft 8 kts 193°
2026-04-22 12:27 29.71203 35.00798 304 ft 9 kts 128°
2026-04-22 12:28 29.71184 35.00846 304 ft 0 kts 101°
2026-04-22 12:29 29.71184 35.00847 304 ft 0 kts 101°
2026-04-22 12:29 29.71182 35.00858 304 ft 2 kts 101°
2026-04-22 12:29 29.71177 35.00888 304 ft 5 kts 101°
2026-04-22 12:30 29.71191 35.00985 304 ft 7 kts 28°
2026-04-22 12:30 29.71245 35.01003 304 ft 9 kts 11°
2026-04-22 12:30 29.71337 35.01028 304 ft 25 kts 14°
2026-04-22 12:31 29.71740 35.01141 305 ft 92 kts 13°
2026-04-22 12:31 29.72578 35.01374 306 ft 149 kts 14°
2026-04-22 12:31 29.73727 35.01696 399 ft 182 kts 15°
2026-04-22 12:31 29.74916 35.02037 1023 ft 176 kts 13°
2026-04-22 12:32 29.76103 35.02366 1662 ft 175 kts 13°
2026-04-22 12:32 29.78573 35.03084 2590 ft 197 kts 14°
2026-04-22 12:32 29.79898 35.03465 3269 ft 200 kts 14°
2026-04-22 12:33 29.81259 35.03853 3979 ft 202 kts 14°
2026-04-22 12:33 29.82638 35.04249 4662 ft 205 kts 14°
2026-04-22 12:33 29.83990 35.04637 5376 ft 203 kts 14°
2026-04-22 12:33 29.85358 35.05030 6032 ft 202 kts 14°
2026-04-22 12:34 29.86726 35.05411 6582 ft 205 kts
2026-04-22 12:34 29.88135 35.05298 7013 ft 206 kts 338°
2026-04-22 12:34 29.89481 35.04709 7512 ft 211 kts 344°
2026-04-22 12:34 29.90946 35.04568 7984 ft 212 kts
2026-04-22 12:35 29.92398 35.04892 8480 ft 216 kts 13°
2026-04-22 12:35 29.93870 35.05264 9000 ft 219 kts 10°
2026-04-22 12:35 29.95386 35.05545 9528 ft 222 kts
2026-04-22 12:35 29.96918 35.05726 10065 ft 223 kts
2026-04-22 12:36 29.98473 35.05856 10602 ft 224 kts
2026-04-22 12:36 30.00030 35.05968 11124 ft 226 kts
2026-04-22 12:36 30.01611 35.06095 11624 ft 228 kts
2026-04-22 12:36 30.03195 35.06235 12116 ft 230 kts
2026-04-22 12:37 30.04798 35.06384 12589 ft 233 kts
2026-04-22 12:37 30.06432 35.06535 13083 ft 235 kts
2026-04-22 12:37 30.08062 35.06731 13588 ft 238 kts
2026-04-22 12:37 30.09681 35.07059 14072 ft 244 kts
2026-04-22 12:38 30.11428 35.07475 14191 ft 269 kts
2026-04-22 12:38 30.13358 35.07926 14321 ft 295 kts
2026-04-22 12:38 30.15479 35.08383 14537 ft 321 kts
2026-04-22 12:38 30.17716 35.08844 15122 ft 336 kts
2026-04-22 12:39 30.20056 35.09318 15883 ft 346 kts
2026-04-22 12:39 30.24893 35.10280 17527 ft 359 kts
2026-04-22 12:39 30.27336 35.10728 18375 ft 364 kts
2026-04-22 12:40 30.29878 35.11190 18879 ft 370 kts
2026-04-22 12:40 30.32447 35.11665 18883 ft 371 kts
2026-04-22 12:40 30.34974 35.12148 18942 ft 367 kts
2026-04-22 12:40 30.37473 35.12637 19010 ft 366 kts
2026-04-22 12:41 30.40040 35.13138 19039 ft 381 kts
2026-04-22 12:41 30.42726 35.13648 19105 ft 402 kts
2026-04-22 12:41 30.45517 35.14185 19092 ft 416 kts
2026-04-22 12:41 30.48469 35.14760 19100 ft 435 kts
2026-04-22 12:42 30.51479 35.15347 19059 ft 452 kts
2026-04-22 12:42 30.54670 35.15962 19038 ft 465 kts
2026-04-22 12:42 30.57856 35.16690 19004 ft 477 kts 14°
2026-04-22 12:42 30.60977 35.18077 19024 ft 484 kts 23°
2026-04-22 12:43 30.64033 35.19805 19005 ft 486 kts 25°
2026-04-22 12:43 30.67049 35.21530 18988 ft 487 kts 24°
2026-04-22 12:43 30.70150 35.23198 19004 ft 486 kts 22°
2026-04-22 12:43 30.73231 35.24755 18998 ft 484 kts 21°
2026-04-22 12:44 30.76327 35.26272 18985 ft 483 kts 21°
2026-04-22 12:44 30.79428 35.27775 18994 ft 483 kts 21°
2026-04-22 12:44 30.82545 35.29299 18969 ft 482 kts 21°
2026-04-22 12:44 30.85628 35.30828 18965 ft 483 kts 21°
2026-04-22 12:45 30.88696 35.32344 18964 ft 482 kts 21°
2026-04-22 12:45 30.91803 35.33868 18952 ft 482 kts 21°
2026-04-22 12:45 30.94897 35.35378 18937 ft 481 kts 20°
2026-04-22 12:45 30.98099 35.36443 18925 ft 477 kts
2026-04-22 12:46 31.01395 35.36724 18959 ft 474 kts 358°
2026-04-22 12:46 31.04663 35.36686 18956 ft 464 kts 357°
2026-04-22 12:46 31.07852 35.36704 18922 ft 448 kts 359°
2026-04-22 12:46 31.10907 35.36890 18915 ft 431 kts
2026-04-22 12:47 31.13834 35.37144 18911 ft 414 kts
2026-04-22 12:47 31.16737 35.37401 18482 ft 420 kts
2026-04-22 12:47 31.19671 35.37682 17846 ft 428 kts
2026-04-22 12:47 31.22642 35.38016 17149 ft 431 kts
2026-04-22 12:48 31.25643 35.38361 16535 ft 429 kts
2026-04-22 12:48 31.28582 35.38682 15980 ft 424 kts
2026-04-22 12:48 31.31521 35.39038 15500 ft 419 kts
2026-04-22 12:48 31.34369 35.39492 14965 ft 417 kts
2026-04-22 12:49 31.37240 35.40065 14333 ft 417 kts
2026-04-22 12:49 31.40067 35.40697 13613 ft 409 kts
2026-04-22 12:49 31.42844 35.41335 13206 ft 403 kts
2026-04-22 12:49 31.45593 35.41949 12653 ft 403 kts
2026-04-22 12:50 31.48363 35.42558 12098 ft 402 kts
2026-04-22 12:50 31.51071 35.43153 11423 ft 394 kts
2026-04-22 12:50 31.53695 35.43736 10912 ft 379 kts
2026-04-22 12:50 31.56259 35.44310 10474 ft 365 kts
2026-04-22 12:51 31.58708 35.44859 10074 ft 351 kts
2026-04-22 12:51 31.61040 35.45377 9962 ft 328 kts
2026-04-22 12:51 31.63224 35.45864 9954 ft 310 kts
2026-04-22 12:51 31.65276 35.46352 10004 ft 299 kts 10°
2026-04-22 12:52 31.67310 35.46847 9954 ft 296 kts 10°
2026-04-22 12:52 31.69321 35.47332 9945 ft 292 kts
2026-04-22 12:52 31.71310 35.47799 9924 ft 290 kts
2026-04-22 12:52 31.73317 35.48045 9757 ft 289 kts 354°
2026-04-22 12:53 31.75238 35.47513 9439 ft 282 kts 330°
2026-04-22 12:53 31.76857 35.46250 9292 ft 278 kts 319°
2026-04-22 12:53 31.78330 35.44763 9137 ft 278 kts 316°
2026-04-22 12:53 31.79758 35.43255 9019 ft 279 kts 316°
2026-04-22 12:54 31.81232 35.41741 8867 ft 280 kts 318°
2026-04-22 12:54 31.82729 35.40279 8718 ft 280 kts 319°
2026-04-22 12:54 31.84250 35.38849 8571 ft 279 kts 320°
2026-04-22 12:54 31.85761 35.37450 8411 ft 278 kts 320°
2026-04-22 12:55 31.87292 35.36031 8269 ft 277 kts 320°
2026-04-22 12:55 31.88781 35.34638 8124 ft 277 kts 320°
2026-04-22 12:55 31.90286 35.33221 7976 ft 272 kts 320°
2026-04-22 12:55 31.91745 35.31849 7823 ft 264 kts 320°
2026-04-22 12:56 31.93160 35.30523 7686 ft 257 kts 320°
2026-04-22 12:56 31.94534 35.29235 7550 ft 249 kts 320°
2026-04-22 12:56 31.95873 35.27981 7386 ft 244 kts 320°
2026-04-22 12:56 31.97204 35.26732 7239 ft 242 kts 320°
2026-04-22 12:57 31.98514 35.25507 7098 ft 242 kts 320°
2026-04-22 12:57 31.99836 35.24271 6952 ft 243 kts 320°
2026-04-22 12:57 32.01163 35.23030 6797 ft 244 kts 320°
2026-04-22 12:57 32.02491 35.21785 6637 ft 244 kts 320°
2026-04-22 12:58 32.03811 35.20549 6485 ft 243 kts 320°
2026-04-22 12:58 32.05142 35.19300 6337 ft 242 kts 320°
2026-04-22 12:58 32.06448 35.18076 6194 ft 242 kts 320°
2026-04-22 12:58 32.07758 35.16847 6047 ft 242 kts 320°
2026-04-22 12:59 32.09058 35.15619 6023 ft 239 kts 320°
2026-04-22 12:59 32.10374 35.14355 5724 ft 244 kts 320°
2026-04-22 12:59 32.11677 35.13085 5406 ft 243 kts 318°
2026-04-22 12:59 32.12900 35.11727 5130 ft 239 kts 312°
2026-04-22 13:00 32.13985 35.10267 4849 ft 233 kts 309°
2026-04-22 13:00 32.14988 35.08798 4595 ft 226 kts 308°
2026-04-22 13:00 32.15929 35.07383 4378 ft 213 kts 308°
2026-04-22 13:00 32.16829 35.06047 4130 ft 202 kts 309°
2026-04-22 13:01 32.17646 35.04744 3959 ft 194 kts 298°
2026-04-22 13:01 32.18010 35.03236 3824 ft 194 kts 270°
2026-04-22 13:01 32.17644 35.01707 3595 ft 195 kts 239°
2026-04-22 13:01 32.16838 35.00396 3299 ft 201 kts 232°
2026-04-22 13:02 32.15890 34.99178 3040 ft 204 kts 221°
2026-04-22 13:02 32.14713 34.98256 2826 ft 205 kts 206°
2026-04-22 13:02 32.13440 34.97539 2648 ft 199 kts 207°
2026-04-22 13:02 32.12184 34.96782 2379 ft 207 kts 210°
2026-04-22 13:03 32.10925 34.95967 2091 ft 202 kts 211°
2026-04-22 13:03 32.09723 34.95168 1889 ft 194 kts 211°
2026-04-22 13:03 32.08573 34.94405 1617 ft 186 kts 211°
2026-04-22 13:03 32.07446 34.93667 1376 ft 182 kts 211°
2026-04-22 13:04 32.06368 34.92965 1142 ft 176 kts 211°
2026-04-22 13:04 32.05299 34.92274 920 ft 171 kts 211°
2026-04-22 13:04 32.04256 34.91607 682 ft 167 kts 212°
2026-04-22 13:04 32.03201 34.90902 543 ft 176 kts 212°
2026-04-22 13:05 32.02132 34.90224 279 ft 173 kts 210°
2026-04-22 13:05 32.01100 34.89570 146 ft 158 kts 212°
2026-04-22 13:05 32.00401 34.89110 145 ft 68 kts 209°
2026-04-22 13:05 32.00136 34.89001 145 ft 23 kts 184°
2026-04-22 13:06 32.00022 34.89004 144 ft 10 kts 168°
2026-04-22 13:06 31.99966 34.89057 145 ft 11 kts 126°
2026-04-22 13:06 31.99918 34.89135 145 ft 12 kts 126°
2026-04-22 13:06 31.99865 34.89223 145 ft 13 kts 123°
2026-04-22 13:07 31.99811 34.89321 145 ft 15 kts 123°
2026-04-22 13:07 31.99751 34.89429 145 ft 16 kts 119°
2026-04-22 13:07 31.99714 34.89549 145 ft 15 kts 108°
2026-04-22 13:07 31.99674 34.89670 145 ft 16 kts 112°
2026-04-22 13:08 31.99629 34.89798 145 ft 16 kts 112°
2026-04-22 13:08 31.99604 34.89869 145 ft 8 kts 114°
2026-04-22 13:08 31.99560 34.89917 145 ft 9 kts 155°
2026-04-22 13:08 31.99490 34.89941 145 ft 11 kts 167°
2026-04-22 13:09 31.99415 34.89974 145 ft 11 kts 153°
2026-04-22 13:09 31.99373 34.90000 145 ft 5 kts 150°
2026-04-22 13:09 31.99358 34.90043 145 ft 6 kts 90°
2026-04-22 13:09 31.99361 34.90093 145 ft 3 kts 86°
2026-04-22 13:10 31.99361 34.90099 145 ft 0 kts 86°